{"data":{"norad_id":49026,"epoch":"2026-05-25T04:48:35.435232Z","epoch_age_seconds":47832,"freshness":"FRESH","line1":"1 49026U 21065A   26145.20041013  .00002370  00000+0  17667-3 0  9995","line2":"2 49026  34.9941  53.2063 0005405 304.1150  55.9045 15.02577641265188","mean_motion":15.02577641,"eccentricity":0.0005405,"inclination_deg":34.9941,"raan_deg":53.2063,"arg_perigee_deg":304.115,"mean_anomaly_deg":55.9045,"bstar":0.00017667,"rev_number":26518,"period_min":95.835313976963,"perigee_km":555.2018689451,"apogee_km":562.70086146788,"semimajor_km":6937.0883652065,"source":"CELESTRAK","updated_at":"2026-05-25T13:37:57.014426Z"}}